Location: Newark
(51.2625°N, 13.3939°E)
Time: 13:03:34
(UTC+00:00)

deb Explorer IX - Pass Details

Date: 17 November 2019
Orbit: 546 x 1104 km, 38.8° (Epoch: 14 December)

Event Time Altitude Azimuth Distance (km) Brightness Sun altitude
Rises 02:57:53 0° 242° (WSW) 3,395 - -32.3°
Reaches altitude 10° 03:01:09 10° 227° (SW) 2,345 - -31.7°
Maximum altitude 03:05:03 20° 181° (S) 1,623 - -31.1°
Exits shadow 03:06:58 16° 152° (SSE) 1,746 ? -30.8°
Drops below altitude 10° 03:08:35 10° 134° (SE) 2,087 ? -30.6°
Sets 03:11:18 0° 118° (ESE) 2,911 ? -30.2°
